Theta_e
295 295 294 294 294 293 293 293 293 292 292 291 291 291 291 290 290 289 289 289 289 288 288 288 287 287 286 286 285 285 285 285 284 284 283 283 283 283 283 283 283 283 283 283 282 282 281 280 279 279 278 278 277 277 276 276 275 275 275 275 276 276 276 276 276 277 277 277 277 277 276 275 275 275 274 274 274 274 274 274 274 274 274 274 274
295 295 294 294 293 293 293 293 292 292 291 291 291 291 290 290 289 289 289 288 288 288 288 288 287 287 286 285 285 285 285 285 284 283 283 283 283 282 282 283 283 283 283 282 282 281 280 279 279 278 277 276 276 275 274 274 274 274 274 274 274 274 274 274 274 274 275 275 275 275 274 274 274 274 274 274 274 274 275 275 275 275 275 275 275
295 294 294 293 293 293 293 292 292 291 291 291 291 290 290 289 289 289 288 288 288 288 288 287 287 286 286 285 285 285 284 284 283 283 283 283 283 282 282 282 283 283 283 282 281 280 279 279 278 277 276 275 274 274 273 273 273 273 273 273 273 273 273 273 273 273 273 273 274 274 274 274 274 274 274 274 275 275 275 275 275 275 275 275 275
295 294 293 293 293 293 292 292 291 291 291 290 290 290 289 289 289 288 288 288 287 287 287 287 287 286 286 285 285 284 283 283 283 283 283 283 283 282 282 282 283 283 283 282 281 280 279 278 277 276 275 274 274 273 272 272 272 272 272 272 272 273 273 273 273 273 273 273 274 274 274 274 274 274 274 275 275 275 275 275 276 276 275 275 275
294 294 293 293 292 292 292 291 291 290 290 290 290 289 289 289 288 288 287 287 287 287 286 286 286 286 285 285 284 284 283 282 282 282 282 282 282 282 282 283 283 283 282 281 280 279 278 277 276 275 274 273 273 273 272 272 272 272 272 272 273 273 273 273 273 273 273 273 273 274 274 274 274 275 275 275 275 275 275 276 276 276 276 276 276
294 293 293 292 292 292 291 291 291 290 290 290 290 289 288 288 288 287 287 287 286 286 286 286 285 285 285 285 284 283 283 282 282 282 282 281 281 281 282 282 282 282 281 280 279 278 277 277 276 275 274 273 273 273 272 272 272 272 273 273 273 274 274 274 274 274 273 273 274 274 274 275 275 275 275 276 276 276 276 276 276 276 276 276 276
293 293 293 292 292 291 291 291 291 290 290 290 289 288 288 287 287 287 287 286 286 285 285 285 285 285 285 284 284 283 282 282 281 281 281 281 281 281 282 282 281 281 280 279 278 277 277 276 276 275 274 274 273 273 273 273 273 273 273 274 274 274 274 274 274 274 274 274 274 274 275 275 275 275 276 276 276 276 276 276 276 277 277 277 276
293 293 292 292 291 291 291 291 291 290 289 289 288 288 287 287 287 287 286 286 285 285 285 285 285 284 284 284 283 282 282 281 281 281 281 280 280 281 281 281 281 280 279 278 277 277 276 276 276 275 274 274 273 273 273 273 273 274 274 275 275 274 274 274 274 274 274 274 274 274 275 275 275 276 276 276 276 276 276 277 277 277 277 277 277
293 292 292 291 292 292 291 291 290 289 289 288 288 287 287 286 286 286 285 285 285 285 285 285 284 283 283 282 282 281 281 281 281 281 281 280 281 281 281 281 280 279 278 277 276 276 276 276 275 275 274 274 274 274 274 274 275 275 275 275 275 275 275 274 274 274 274 274 275 275 275 276 276 276 276 276 276 277 277 277 277 277 277 277 277
292 292 291 291 292 291 291 290 289 289 288 288 287 287 286 286 285 285 284 284 284 284 284 284 283 283 282 281 281 281 281 281 281 281 281 281 281 281 281 280 280 279 278 276 276 276 276 275 275 274 274 274 274 275 275 276 276 276 276 276 276 276 275 275 275 275 275 275 275 276 276 276 276 276 276 277 277 277 277 277 277 277 277 277 277
292 291 291 292 291 291 290 290 289 288 287 287 286 286 285 284 284 284 283 283 283 283 283 283 282 282 282 281 281 280 280 281 281 280 280 281 281 281 281 280 279 278 277 276 276 275 275 275 274 274 274 274 275 275 275 275 276 276 276 276 276 276 277 277 277 277 277 277 277 277 277 277 277 278 278 278 278 277 277 277 277 277 277 277 277
292 291 291 291 291 290 290 289 288 287 287 286 285 285 284 283 283 283 283 283 282 282 282 282 282 281 281 281 280 280 280 281 280 280 280 280 281 281 280 279 278 277 276 276 276 275 275 274 274 274 274 274 274 274 274 274 275 275 276 276 276 277 277 277 277 278 278 278 278 278 278 278 278 278 277 277 277 277 276 277 277 277 277 277 277
291 291 291 291 290 290 289 288 287 287 286 285 284 284 283 283 283 282 282 282 282 281 281 281 281 280 280 280 280 280 280 280 279 279 279 280 280 280 279 279 278 277 276 276 275 275 275 275 275 274 274 274 274 273 273 274 274 275 275 275 276 276 277 277 277 277 278 278 278 278 278 277 277 277 277 277 277 277 277 277 277 277 277 277 277
290 290 290 290 290 289 288 288 287 286 285 284 283 283 282 282 282 282 281 281 280 280 280 280 280 280 279 279 279 279 280 280 279 278 279 279 279 279 278 278 277 277 276 276 275 275 275 275 274 274 274 273 273 273 274 274 274 274 275 275 276 276 276 276 276 276 277 277 277 277 277 277 277 277 276 276 276 277 277 277 277 277 277 277 277
290 290 290 289 289 288 288 287 286 285 284 283 283 282 282 282 281 281 281 280 280 280 280 279 279 279 279 279 278 278 279 279 278 279 279 279 278 278 277 277 276 276 276 275 275 275 275 275 274 273 273 273 273 274 274 275 275 275 275 276 276 276 276 276 276 276 276 277 277 277 277 276 276 276 276 276 276 277 277 277 277 277 277 277 277
289 289 289 288 288 288 287 286 285 284 283 283 282 281 281 281 281 280 280 280 280 279 279 279 278 278 278 278 277 277 278 278 278 279 280 280 279 278 277 277 276 276 276 275 275 275 275 274 274 273 273 274 274 274 275 276 276 276 276 276 275 276 276 276 276 276 276 276 276 276 276 276 276 276 276 277 277 276 276 275 275 275 275 276 276
289 289 288 288 288 287 287 286 284 284 283 282 282 281 281 281 280 280 279 279 279 279 278 278 278 277 277 277 276 277 277 278 279 280 280 280 280 279 277 277 276 276 275 275 275 275 274 274 273 273 274 274 274 275 276 276 276 276 276 276 276 276 276 275 275 275 275 275 275 275 275 275 276 276 275 275 274 274 274 274 273 274 274 275 275
288 288 288 288 287 287 286 285 284 283 282 282 282 281 281 280 280 279 279 279 278 278 278 277 277 277 277 276 276 277 277 278 280 280 280 280 280 278 277 276 276 275 275 275 274 274 273 273 274 274 274 275 275 276 276 276 276 276 276 276 276 276 275 274 274 273 273 273 274 274 274 274 273 273 272 271 272 272 272 272 273 273 274 274 274
288 288 287 287 287 286 285 285 284 284 283 282 282 281 281 280 279 279 278 278 278 277 277 276 276 276 276 276 276 276 277 278 279 280 280 280 279 278 277 276 275 275 274 274 274 273 273 274 275 275 275 275 276 276 276 276 276 276 276 275 275 275 274 273 273 273 273 273 273 273 272 271 270 269 269 270 270 271 271 271 272 272 273 274 275
288 288 287 287 286 286 285 285 284 283 283 282 281 281 280 279 279 278 278 277 277 276 276 276 275 275 275 275 275 275 276 277 279 279 279 279 279 277 276 275 275 274 274 273 273 273 274 274 275 275 276 276 275 275 275 276 276 276 275 275 274 274 273 273 273 273 273 272 271 270 270 269 268 268 269 269 270 270 270 271 271 272 273 273 274
288 288 288 287 286 285 284 284 284 283 282 281 281 280 280 279 278 277 277 276 276 275 275 275 274 274 274 274 274 275 276 277 278 278 279 279 278 277 275 275 274 274 274 273 273 274 274 275 275 275 274 274 274 275 275 275 275 275 274 274 273 273 273 273 273 273 271 270 269 268 268 268 268 268 269 269 269 270 270 271 271 272 272 272 273
288 288 288 287 286 285 284 284 283 283 282 281 280 279 279 278 277 276 276 275 275 274 274 273 273 273 273 273 273 274 275 276 277 278 278 279 278 277 275 274 274 274 273 273 274 274 275 275 274 274 273 273 274 275 275 275 274 274 273 273 273 273 273 273 272 270 269 268 267 267 267 267 268 268 269 269 270 270 270 271 271 271 271 271 272
288 288 287 287 286 285 284 283 283 282 281 281 280 279 277 277 276 276 275 274 274 273 273 273 272 272 272 272 272 273 273 274 275 277 277 278 278 277 275 274 274 274 273 274 275 275 275 274 273 273 273 273 274 274 274 274 273 272 272 272 273 273 272 271 269 268 267 266 266 267 267 267 268 268 269 269 270 270 270 270 270 271 271 271 271
287 287 287 286 285 284 283 283 282 281 281 280 279 278 276 276 275 275 274 274 273 273 272 272 272 271 271 270 271 271 272 273 274 275 277 278 278 278 276 275 275 275 274 275 275 275 274 273 273 272 273 273 273 273 272 272 271 271 271 272 272 271 270 268 267 266 266 266 266 267 267 268 268 268 269 269 269 269 269 270 270 270 271 271 271
286 286 286 285 284 283 283 282 281 281 280 279 278 277 275 275 274 274 274 273 273 272 272 272 272 271 270 270 270 271 271 272 273 274 276 277 278 278 277 276 276 276 275 275 275 274 273 273 273 273 273 272 271 271 271 270 270 270 270 270 270 269 267 266 266 265 265 266 266 267 267 267 268 268 268 269 269 269 269 269 270 270 270 271 271
286 286 285 284 284 283 282 281 280 280 279 279 278 277 276 275 274 274 273 273 273 273 272 271 271 271 270 270 270 270 270 271 272 274 275 277 277 278 277 277 277 277 275 274 274 273 273 273 272 272 271 270 269 269 269 270 269 269 269 269 268 267 266 265 265 265 266 266 267 267 267 267 267 268 268 268 268 269 269 269 270 270 271 271 271
286 285 285 284 283 282 281 280 279 279 278 278 277 276 275 275 274 274 273 273 273 273 272 272 271 271 271 271 271 270 270 271 272 273 275 276 276 277 277 277 277 276 274 273 273 272 272 272 271 270 270 269 269 269 269 269 269 269 269 268 267 266 266 265 265 266 266 266 266 266 266 267 267 267 268 268 268 269 269 270 270 270 271 271 271
287 286 285 283 281 281 280 280 278 278 277 277 276 276 275 274 275 274 274 274 273 273 272 272 272 272 272 272 271 271 271 271 272 273 274 274 275 276 276 276 275 274 273 272 272 271 271 271 270 269 269 269 269 269 269 268 268 268 268 267 267 266 265 265 265 265 265 265 266 266 266 266 267 267 267 268 268 269 269 270 270 271 271 270 270
286 285 284 282 280 280 279 278 278 277 276 276 276 276 275 274 275 275 275 275 274 274 273 273 272 273 272 272 272 271 271 271 272 273 273 274 274 275 275 274 273 273 273 272 271 271 270 270 269 268 268 268 269 268 268 267 267 267 267 266 266 266 265 265 264 265 265 265 265 266 266 266 266 267 267 268 268 269 269 270 270 270 270 270 270
284 283 282 281 280 279 278 278 277 276 276 275 275 275 274 274 274 274 274 274 274 274 274 273 273 273 273 273 273 272 272 272 272 273 273 273 274 274 274 273 272 272 272 271 271 270 269 268 268 268 268 268 267 267 266 266 265 266 267 267 266 265 264 264 264 264 265 265 265 265 266 266 266 267 268 268 269 269 270 270 270 270 270 270 270
283 282 281 280 279 278 278 277 276 275 275 275 274 274 273 273 274 274 273 273 274 274 274 273 273 273 273 273 273 272 272 272 273 273 274 274 274 274 274 273 273 272 272 271 270 269 268 268 268 268 267 266 266 265 264 264 263 264 265 266 265 264 264 264 264 264 264 264 265 265 265 266 267 267 268 268 269 269 270 270 270 270 270 269 269
284 283 282 280 279 278 277 276 275 275 274 274 273 273 272 272 273 273 273 273 274 274 275 274 274 274 273 273 273 273 273 273 274 274 274 275 275 275 274 274 273 272 271 271 269 268 268 268 267 267 266 266 265 264 263 262 262 263 263 263 263 263 263 263 264 264 264 264 264 265 265 266 267 267 268 268 269 270 270 270 270 270 269 269 269
283 283 283 281 279 277 276 275 275 274 273 273 272 272 272 272 273 273 273 274 274 275 275 275 275 274 274 273 273 273 274 275 275 275 276 276 276 275 275 274 273 271 271 270 268 268 267 267 267 266 265 265 264 263 262 262 262 262 262 261 262 262 263 263 263 263 263 264 264 265 266 267 267 267 268 269 269 270 270 270 270 269 269 269 269
283 283 283 281 278 276 275 275 274 274 273 272 272 272 272 272 273 273 274 274 275 276 276 276 275 275 274 274 274 275 275 276 276 276 276 276 275 275 274 273 271 270 269 268 268 267 267 266 266 266 265 265 264 263 262 262 262 262 262 261 261 262 262 262 262 263 263 264 264 265 266 266 267 268 268 269 269 270 270 270 269 269 269 269 269
283 283 283 281 279 276 275 274 274 273 273 272 272 272 272 273 273 273 274 275 275 276 276 276 276 275 275 275 275 276 277 277 277 276 276 275 275 274 272 270 268 268 267 267 267 267 266 266 266 265 265 264 263 262 262 263 262 262 261 261 261 261 262 262 262 262 263 264 265 265 266 266 267 268 268 269 270 270 270 269 269 269 269 269 269
283 283 282 281 278 276 275 274 274 273 273 272 272 272 273 273 273 274 275 275 275 275 275 275 275 275 276 276 276 277 277 277 276 276 275 275 274 272 270 268 267 266 266 266 266 266 265 265 265 265 264 264 263 263 262 263 263 262 262 261 261 261 261 262 262 263 263 264 265 265 266 266 267 268 269 269 270 270 269 269 269 269 269 269 269
282 282 282 280 278 276 275 274 273 273 273 272 272 272 273 273 273 274 275 275 275 275 275 275 275 275 276 276 277 277 277 276 276 275 275 274 272 271 270 268 267 266 266 266 266 265 265 265 265 265 264 263 263 263 263 263 263 262 262 261 261 261 261 262 262 263 264 264 264 265 266 267 268 268 269 270 270 270 269 269 268 268 269 269 269
281 281 281 280 277 275 274 273 273 273 272 272 272 272 273 273 274 274 275 275 274 274 274 274 275 275 275 276 276 276 276 275 274 273 273 271 270 269 269 268 267 266 266 265 265 265 265 265 265 264 264 263 263 263 263 263 263 262 262 261 261 261 261 262 262 263 263 263 264 265 266 267 268 269 269 270 270 269 268 268 268 268 268 268 268
280 280 281 280 277 275 274 273 272 272 272 272 272 272 273 273 274 274 274 274 274 274 274 274 274 274 275 275 275 275 273 272 270 269 269 268 268 267 267 266 266 266 265 265 265 265 265 265 264 264 264 263 263 264 264 263 263 263 262 261 261 261 262 262 262 262 263 264 264 265 266 267 268 269 270 270 269 269 268 268 268 268 268 268 268
278 279 279 279 277 275 273 273 272 272 272 272 272 272 273 273 273 274 273 273 273 273 273 273 273 273 274 274 274 273 270 268 266 266 267 266 266 266 266 266 265 265 265 265 265 265 265 264 264 264 264 263 263 264 263 263 263 263 262 261 261 261 262 262 262 262 263 264 265 266 267 267 268 269 270 270 269 268 268 268 268 268 268 268 268
277 278 278 278 276 274 273 272 272 272 272 272 272 272 272 273 273 273 272 272 272 272 272 272 272 272 273 273 272 270 268 266 265 265 265 265 265 265 265 265 265 265 265 265 264 265 265 264 264 264 264 263 263 263 263 263 263 262 262 262 262 261 261 262 262 263 263 264 265 266 267 268 268 269 270 269 269 268 268 267 267 268 268 268 268
277 277 277 276 275 274 272 272 272 272 271 272 272 272 272 272 272 271 271 271 271 271 271 270 269 270 271 271 270 269 267 266 265 265 265 265 265 265 265 265 265 265 265 265 265 265 265 264 264 264 263 263 263 263 263 263 263 263 263 262 262 261 261 262 262 263 264 264 265 266 267 268 269 270 269 269 268 268 267 267 267 268 268 268 268
277 276 275 274 274 273 272 271 271 271 271 271 271 271 271 271 271 270 270 270 270 270 269 268 267 269 271 271 269 268 267 266 265 265 264 264 264 264 264 264 264 264 264 265 265 265 265 264 264 264 263 263 263 263 263 263 263 263 263 262 262 261 261 262 263 264 264 264 265 266 267 268 269 270 269 268 268 267 267 267 267 267 268 268 268
275 275 274 273 272 272 271 271 271 271 271 270 270 270 270 270 270 270 269 269 269 268 267 266 267 269 270 269 268 267 266 265 265 265 264 264 264 264 264 264 264 264 264 265 265 265 264 264 264 264 264 263 263 263 263 264 264 263 263 263 262 262 262 263 263 264 264 264 265 266 267 269 270 269 269 268 268 267 267 267 267 267 267 268 268
274 273 272 271 271 270 270 270 270 270 270 269 269 269 269 269 269 269 268 267 267 266 266 266 267 268 267 266 266 266 265 265 264 264 264 264 264 264 264 264 264 264 264 265 264 264 264 264 264 264 264 263 263 263 264 264 264 264 264 263 263 263 263 264 264 264 264 265 265 266 268 269 269 269 268 268 267 267 267 267 267 267 267 267 267
272 271 270 270 269 269 269 269 269 269 268 268 268 268 268 268 267 267 266 266 265 265 265 265 266 265 265 265 265 265 265 264 264 264 264 264 264 264 264 264 264 264 264 264 264 264 263 263 263 264 264 264 264 264 264 264 264 264 264 264 264 264 264 265 265 265 265 265 266 267 269 269 269 268 268 268 267 267 267 266 267 267 267 267 267
270 270 269 269 268 268 268 268 268 268 268 267 267 267 266 266 265 265 265 264 264 264 264 264 264 264 264 264 264 264 264 264 264 264 264 264 263 264 264 264 264 264 264 264 263 263 263 263 263 263 263 263 263 263 264 264 264 264 264 264 264 265 265 265 265 265 266 266 267 269 269 269 268 268 268 267 267 267 266 266 267 267 267 267 267
268 268 268 267 267 267 267 266 267 266 266 266 266 265 265 264 264 263 263 263 263 263 263 263 263 263 263 263 263 263 264 264 263 263 263 263 263 263 263 263 264 263 263 263 263 263 263 263 263 263 263 263 263 263 263 264 264 264 264 264 264 265 265 266 266 266 266 267 268 269 269 268 268 268 268 267 267 266 266 266 266 267 267 267 267
267 267 266 266 266 266 266 266 265 265 265 264 264 263 263 263 262 262 262 262 262 262 262 262 262 263 263 263 263 263 263 263 263 263 263 263 263 263 263 263 263 263 263 263 263 263 263 263 263 263 263 263 263 263 263 264 264 264 264 264 264 265 265 266 266 266 267 268 269 269 268 268 268 268 267 267 266 266 266 266 266 266 267 267 267
265 265 265 265 265 265 265 264 264 264 264 263 263 262 262 262 261 261 261 261 261 261 262 262 263 263 263 263 262 263 263 263 263 263 263 263 263 263 263 263 263 263 263 263 263 263 263 263 263 263 263 262 263 263 263 263 264 264 264 264 264 265 265 266 266 267 268 269 269 268 268 268 268 268 267 267 266 266 266 266 266 266 266 266 267
264 263 263 263 263 263 263 263 263 263 263 262 262 261 261 261 260 260 260 261 261 261 261 262 262 263 263 263 263 263 263 263 263 263 263 263 263 263 263 263 263 263 263 263 263 263 263 263 263 263 263 263 263 263 263 263 264 264 264 264 264 265 265 266 266 267 268 269 269 268 268 268 268 268 267 266 266 266 266 266 266 266 266 266 266
Wind_Speed
43 45 46 46 44 44 45 46 46 44 43 43 44 44 43 43 43 42 42 43 43 43 44 44 44 44 43 42 41 40 39 37 34 31 29 27 25 22 21 19 17 16 15 15 14 13 13 12 12 13 13 14 15 16 16 16 16 15 15 15 16 15 16 15 12 18 27 27 25 25 23 27 33 32 33 35 35 36 37 36 37 38 39 40 41
44 46 46 45 46 46 45 44 43 43 43 43 44 44 43 42 42 42 42 43 44 44 45 44 44 44 43 42 41 41 40 38 35 33 31 28 26 24 22 21 19 18 17 16 15 14 13 13 13 14 14 15 15 15 15 15 14 14 13 13 15 15 14 16 15 15 23 30 33 36 33 29 32 34 33 35 38 39 39 39 38 39 40 41 42
46 45 42 43 46 45 43 41 41 43 43 44 44 44 42 42 42 42 42 43 43 44 45 44 44 44 43 42 41 41 39 37 35 33 31 29 27 26 23 21 20 19 18 18 16 15 15 14 14 14 14 14 14 14 14 13 12 12 12 11 13 14 13 15 18 15 21 32 35 37 37 32 31 35 37 39 39 39 41 43 42 41 42 42 43
45 42 42 44 44 42 42 41 41 42 44 45 44 43 42 42 42 42 42 42 43 44 44 44 44 44 44 42 41 40 39 37 35 33 30 29 27 25 23 21 20 19 19 18 17 16 15 15 14 14 13 13 13 13 13 12 11 10 11 11 11 14 14 14 18 20 23 31 36 36 38 36 34 34 37 40 41 41 42 44 46 46 45 43 43
42 41 43 43 41 41 42 41 41 42 44 44 43 43 42 42 42 42 42 42 43 43 43 44 45 45 44 43 42 40 39 37 35 33 30 28 26 24 23 22 21 20 19 18 17 16 15 15 14 13 13 13 13 14 13 11 11 10 11 12 11 13 15 16 20 25 27 31 37 39 37 36 36 35 34 38 42 44 46 48 47 46 46 46 43
40 41 41 40 40 42 41 41 42 44 45 44 44 43 42 42 42 42 43 43 43 43 44 45 45 45 44 43 42 40 39 37 35 33 31 29 26 24 22 21 21 20 19 17 16 16 15 14 14 13 13 14 13 13 12 11 11 11 10 11 12 13 17 19 22 25 27 30 34 38 39 37 38 37 34 35 39 43 47 54 51 42 40 45 45
39 40 40 39 40 40 41 44 46 46 45 43 42 41 41 42 42 43 43 43 43 44 44 45 45 45 44 43 42 40 39 37 35 33 31 29 27 25 23 22 21 20 18 17 16 16 15 14 14 13 13 13 13 12 12 11 11 11 11 12 13 15 18 21 23 25 27 31 32 35 40 41 38 39 38 37 38 37 37 44 50 47 42 43 45
38 40 39 38 39 41 43 45 45 43 42 40 39 39 40 41 42 42 43 43 44 45 46 45 44 43 43 42 41 40 38 37 36 34 31 29 27 26 24 23 22 21 19 18 17 16 16 14 13 13 12 12 11 11 11 11 11 12 12 13 14 17 19 21 23 25 26 28 27 28 33 35 34 37 39 35 33 35 35 35 41 47 47 46 45
38 38 37 39 41 43 43 41 40 39 39 39 39 40 41 41 41 42 43 44 44 45 45 45 44 43 41 41 40 39 39 38 37 35 33 30 29 27 25 25 23 22 21 19 18 16 15 14 12 11 10 10 10 11 11 11 12 13 13 13 14 16 19 20 21 22 22 23 23 23 25 27 28 31 34 31 29 35 38 33 34 40 42 46 49
37 36 37 42 44 42 39 37 37 38 39 40 41 41 41 41 41 42 43 43 44 44 44 44 44 44 42 41 40 40 40 40 38 36 33 31 30 29 28 26 24 23 21 20 18 16 14 12 10 8 9 11 11 12 12 12 13 14 14 13 14 16 18 20 20 21 22 22 22 20 18 21 26 27 28 31 32 34 34 31 33 38 37 37 43
36 36 39 42 40 37 35 36 37 38 39 40 40 41 41 41 41 42 42 42 43 44 44 44 44 44 44 43 43 42 42 41 39 36 33 31 31 30 30 28 26 24 22 21 18 15 13 11 9 8 10 12 12 11 11 12 13 14 15 16 17 18 20 21 21 21 22 23 22 19 17 21 28 29 30 34 35 37 38 37 36 37 34 27 26
35 37 39 38 35 34 36 36 37 37 38 39 40 40 40 40 41 41 42 43 43 44 45 45 44 44 44 44 44 44 44 42 39 36 34 32 32 31 30 28 27 25 23 20 18 15 13 12 10 10 11 11 12 12 12 12 13 14 16 17 17 19 20 22 24 24 23 23 24 22 22 26 32 33 34 37 38 41 43 41 37 36 36 30 25
34 35 35 33 32 34 35 35 36 37 38 39 39 39 40 41 42 43 43 44 44 44 44 44 44 44 44 44 44 44 44 42 38 36 35 34 33 31 30 29 27 26 23 20 18 16 15 13 12 12 12 11 11 11 12 12 13 14 16 17 18 20 21 22 24 25 27 28 28 29 29 30 35 38 37 36 37 40 40 38 39 37 36 36 37
32 33 32 31 32 33 34 35 36 36 36 37 38 39 41 42 42 42 42 42 43 43 43 43 43 43 44 44 43 43 43 41 38 36 35 33 33 31 30 28 26 24 22 20 19 18 17 15 15 14 13 11 10 11 11 13 15 16 19 20 20 19 19 21 24 26 28 29 30 34 33 32 34 36 37 36 36 38 38 38 40 37 36 40 44
31 31 30 30 32 34 35 36 35 35 36 37 38 39 40 40 40 40 41 42 43 43 43 43 43 42 42 42 41 41 41 40 37 35 33 31 30 30 28 26 25 23 21 20 20 19 18 17 15 13 11 9 9 11 12 13 16 18 19 18 19 20 22 24 25 25 27 28 29 32 32 30 32 35 37 39 38 38 40 43 45 44 43 44 45
28 28 28 30 33 35 36 36 35 35 36 37 38 39 39 39 40 39 39 39 40 40 40 41 41 41 40 40 39 38 39 38 35 33 31 29 28 27 26 25 24 23 22 20 20 20 18 16 13 11 10 9 10 11 11 13 15 17 18 19 21 24 24 24 23 24 26 27 28 32 34 34 36 36 37 39 40 42 45 48 50 48 41 36 35
26 27 29 32 35 36 36 36 35 36 37 37 38 39 39 39 39 39 38 37 37 37 38 38 38 39 39 39 38 37 37 35 31 30 30 28 27 27 26 25 23 23 22 20 19 19 15 12 10 10 10 10 11 11 11 11 14 16 19 22 22 22 23 23 22 22 24 27 29 32 33 33 33 34 36 38 41 43 42 41 41 38 30 23 20
24 26 28 31 33 34 35 36 36 36 38 39 39 39 38 37 37 38 39 37 36 37 36 35 35 37 39 40 38 37 37 35 30 28 28 28 28 29 27 25 23 21 21 19 16 14 11 9 10 11 12 11 11 11 10 11 14 16 18 19 19 20 22 22 22 23 25 27 27 27 29 31 34 36 37 37 36 36 35 34 36 35 29 22 18
16 18 21 24 27 30 32 35 36 36 38 38 37 36 34 34 34 35 35 35 34 34 35 34 34 35 37 39 38 37 37 35 30 27 28 27 27 29 27 25 23 20 19 17 14 11 9 9 11 12 12 11 11 11 10 11 14 15 16 16 18 20 21 21 24 26 25 23 23 28 34 37 38 36 36 34 32 31 32 33 34 33 29 27 24
12 14 15 17 21 25 27 30 32 33 33 32 31 31 31 31 32 33 33 32 32 32 33 34 34 34 36 36 36 36 37 36 31 27 27 26 26 28 28 26 24 22 19 17 14 12 11 10 11 11 10 10 10 11 11 12 13 15 15 17 19 21 23 24 24 23 23 25 29 34 38 37 34 32 32 32 30 30 31 30 30 31 29 29 30
12 12 14 16 19 22 23 24 25 26 26 27 27 29 30 31 32 33 32 30 30 31 31 32 32 32 33 34 34 35 37 38 32 26 25 26 25 27 29 27 24 23 20 17 15 14 13 11 12 11 9 10 11 11 11 13 14 15 17 18 19 21 22 22 22 22 26 31 32 33 33 33 32 31 30 31 30 30 29 27 26 29 29 30 31
12 12 14 17 20 23 24 25 25 24 25 26 28 27 28 29 30 31 31 30 29 29 30 30 30 29 29 31 32 34 36 37 34 27 25 26 25 25 27 26 23 22 21 19 16 14 13 12 12 11 10 10 10 11 12 13 14 15 17 18 18 20 19 20 23 26 28 30 30 31 31 31 31 30 29 30 30 26 26 26 27 29 32 33 33
13 13 16 18 20 23 24 25 26 27 27 28 29 28 27 28 28 29 29 28 28 28 28 28 28 27 28 28 29 31 33 35 35 30 27 26 26 24 24 24 21 20 20 19 17 15 14 13 12 11 9 9 10 11 11 11 12 13 16 17 17 18 19 21 24 26 27 28 28 28 29 28 29 30 29 28 27 26 27 30 31 32 34 36 37
13 14 16 18 19 21 23 24 26 27 28 29 29 28 28 29 28 29 29 28 27 26 27 28 27 27 29 30 29 30 32 33 33 31 28 27 27 25 23 21 20 19 19 18 17 16 13 11 10 9 8 8 9 9 9 11 11 13 15 16 17 17 19 21 24 25 25 25 25 26 28 28 27 28 27 27 28 32 35 35 35 36 37 41 44
14 15 15 17 19 21 23 24 25 27 29 30 31 29 30 30 29 28 29 29 27 25 26 27 27 27 31 33 32 31 32 32 32 30 28 27 26 25 23 22 20 19 19 17 15 13 11 9 8 7 6 7 8 9 11 12 12 13 14 15 16 16 18 20 23 24 24 24 24 26 28 28 28 27 29 31 33 36 39 40 41 41 41 43 47
18 17 17 18 20 22 24 25 26 28 30 31 32 32 33 33 30 29 29 28 27 26 26 26 26 26 30 34 34 33 33 32 31 30 28 26 25 24 23 21 20 18 16 15 13 10 9 10 9 7 8 9 10 11 11 11 11 13 13 14 14 15 17 20 22 23 23 24 26 27 29 30 30 31 32 35 36 38 39 42 44 44 41 42 44
21 20 20 20 22 24 27 28 29 30 31 32 31 31 34 34 32 30 30 29 27 26 26 26 26 25 26 28 30 31 33 33 31 29 29 28 26 24 23 21 19 17 15 15 14 12 12 11 10 10 11 11 10 9 10 10 11 12 12 13 15 16 17 19 20 22 24 26 27 29 31 32 32 34 36 37 38 39 40 40 41 42 41 41 39
24 23 23 22 23 25 27 29 30 30 32 34 34 34 35 36 36 36 37 37 34 31 29 30 30 29 27 26 25 25 27 30 30 30 32 32 29 27 25 23 22 20 18 17 15 13 12 10 10 11 11 10 9 8 9 9 9 11 12 14 15 17 18 19 20 23 25 26 28 30 32 34 35 36 37 37 38 40 41 40 39 40 41 39 31
26 25 23 22 23 24 24 26 27 26 27 29 31 32 35 37 37 36 37 39 39 38 36 35 34 33 31 30 28 26 24 27 30 32 34 33 32 30 27 25 23 20 17 16 14 13 12 10 10 9 8 7 7 7 7 9 10 12 14 15 16 18 20 20 22 24 25 26 28 30 32 34 36 36 36 37 39 40 40 38 38 38 38 35 28
24 24 23 22 24 24 23 24 25 24 23 24 24 23 25 29 30 27 28 31 33 33 33 34 35 36 35 34 33 32 32 33 32 30 29 28 27 25 24 23 21 19 16 16 15 13 11 10 9 8 6 5 6 7 8 11 13 14 15 17 18 19 20 21 22 24 26 26 27 29 31 33 35 36 36 36 38 40 39 37 36 35 34 31 26
22 22 23 23 25 25 24 23 24 24 23 23 23 20 18 19 21 20 21 24 24 22 24 27 30 33 35 35 32 29 30 32 31 28 27 26 24 22 21 20 18 18 18 17 15 12 11 10 8 6 5 4 6 8 10 12 14 15 16 18 20 20 20 22 23 24 26 27 28 29 30 31 33 35 35 35 37 40 39 36 34 34 33 31 27
24 23 23 24 25 25 24 23 23 23 22 22 23 21 18 16 16 15 17 20 22 20 21 24 27 28 31 34 32 28 29 31 31 29 28 26 24 22 21 19 18 19 18 16 13 12 12 10 8 6 5 6 7 9 11 12 13 14 15 18 20 20 21 22 23 24 25 27 29 29 29 30 32 34 35 35 36 37 36 34 33 33 33 31 28
28 27 25 23 23 24 24 24 23 24 24 23 23 23 21 18 15 14 16 20 22 21 21 24 27 26 27 29 30 31 33 34 32 30 28 26 25 24 22 20 20 18 17 15 13 13 11 9 7 6 5 7 9 10 11 12 13 14 15 17 19 21 22 23 24 25 26 27 28 28 29 30 33 34 35 35 34 33 32 32 33 32 29 26 26
32 31 29 25 24 25 25 25 25 25 25 25 24 24 23 22 20 19 18 19 19 20 22 25 27 27 28 28 29 32 35 34 32 30 29 27 26 25 24 22 19 15 14 14 14 13 11 8 7 5 6 7 9 11 12 12 13 14 16 17 19 21 23 23 23 25 27 28 27 28 29 32 33 33 34 34 32 30 30 30 31 29 26 24 24
32 32 31 29 27 26 26 27 27 26 26 26 26 25 25 24 24 23 22 20 19 20 23 26 29 29 30 31 32 33 33 32 30 29 29 28 28 28 28 24 20 17 16 15 14 13 11 8 6 5 6 8 9 10 11 12 13 14 16 18 20 22 23 24 25 26 27 27 27 29 31 32 33 33 33 32 29 28 28 30 30 30 28 26 25
30 29 28 28 28 27 27 27 28 27 27 27 26 26 25 24 24 24 23 22 22 21 23 26 29 30 31 32 33 33 31 30 30 30 29 29 30 31 29 25 21 20 18 16 14 12 10 7 6 5 6 8 9 9 11 12 13 15 16 17 20 22 23 25 26 26 26 27 29 31 32 32 33 34 33 30 29 29 30 32 33 32 30 28 26
29 27 26 27 27 26 25 26 27 27 26 25 24 24 24 24 25 24 23 23 24 24 24 28 31 31 30 31 32 33 31 30 30 29 29 29 30 29 27 25 23 21 19 16 14 11 9 7 6 5 6 8 9 9 11 12 14 15 17 18 20 22 23 24 25 26 28 29 30 31 32 33 33 34 32 29 29 31 33 34 34 32 32 32 30
29 28 28 27 26 24 23 23 24 24 24 24 24 24 23 23 24 24 24 24 25 25 25 28 30 29 30 32 34 35 34 32 30 29 29 28 28 27 25 24 23 20 18 16 13 11 9 7 5 5 6 7 9 9 11 13 14 15 17 19 21 22 23 24 25 27 29 30 30 31 32 33 34 33 31 29 30 32 34 35 34 32 32 31 27
27 27 29 27 24 24 23 22 23 24 23 23 23 24 24 23 23 23 23 24 25 25 25 26 26 27 30 33 35 36 35 32 30 30 30 28 27 26 25 24 22 19 17 15 13 11 9 7 6 6 6 7 8 9 11 13 14 15 17 19 21 23 24 25 27 29 29 30 31 31 32 33 34 33 31 30 32 34 35 35 35 33 31 28 26
27 26 27 25 23 23 23 22 23 24 24 24 24 24 24 23 23 23 23 23 23 23 25 25 25 27 32 35 38 38 35 30 29 31 31 29 28 26 25 24 22 19 17 15 13 11 8 7 6 6 6 7 8 9 11 13 14 15 17 18 21 23 25 26 28 29 29 30 32 32 33 35 35 33 31 32 35 37 37 37 37 35 32 30 30
28 25 24 24 23 22 22 22 23 24 24 25 25 24 24 24 24 24 24 24 23 23 24 25 26 30 34 35 37 38 35 31 31 32 31 29 28 26 24 22 20 19 17 14 12 10 8 6 6 6 7 7 8 10 11 12 14 15 17 19 21 23 25 27 28 29 30 31 31 31 34 35 33 31 32 35 39 39 39 38 38 36 34 33 32
26 23 21 21 23 22 21 21 22 23 24 24 24 25 25 25 25 25 25 25 25 25 25 25 26 29 31 31 32 35 35 33 32 31 30 28 27 25 23 21 19 17 15 13 10 8 6 5 6 6 7 8 9 10 11 12 14 15 17 19 21 23 26 28 28 29 31 30 30 33 37 37 33 31 35 38 40 41 39 38 37 36 34 33 31
26 23 21 22 23 22 22 22 22 23 23 23 23 25 26 26 26 27 27 27 27 27 26 25 26 28 29 29 31 34 34 32 30 29 28 27 26 24 21 20 17 15 12 10 8 7 6 5 5 6 7 8 9 10 11 12 13 15 17 19 21 24 26 28 29 31 31 30 32 39 41 37 32 34 38 39 40 40 39 38 36 35 34 32 31
23 20 19 20 20 20 20 21 22 22 23 23 23 25 27 27 27 27 27 27 26 26 26 27 29 29 28 29 31 32 32 30 29 28 27 26 24 22 20 18 15 13 11 9 7 6 5 5 5 6 7 7 8 10 10 11 12 15 17 19 22 24 26 27 29 31 32 33 37 42 40 34 32 35 38 40 41 40 39 37 35 34 33 32 29
18 19 19 18 19 19 19 21 22 22 24 24 24 24 26 26 26 27 26 26 25 25 25 27 27 27 28 29 31 31 30 30 29 28 26 25 23 21 19 17 14 12 11 8 7 6 5 5 6 7 7 7 8 9 10 10 11 13 15 18 21 24 25 27 29 31 32 36 40 40 35 33 35 37 38 40 41 40 39 38 37 34 32 31 28
17 19 19 19 20 19 20 21 23 23 24 24 23 23 24 24 25 25 25 26 26 26 26 26 26 26 28 30 30 30 30 30 29 27 26 24 22 20 18 16 14 12 10 9 7 6 5 5 6 7 8 8 9 9 10 10 11 13 14 17 20 22 23 26 28 31 34 37 38 35 33 34 37 38 38 40 42 40 39 39 38 34 33 32 30
17 18 19 19 20 20 20 21 22 22 22 22 22 22 22 23 23 24 24 25 27 27 27 26 26 27 29 30 30 31 31 30 28 27 25 23 21 19 17 15 14 12 10 9 8 6 5 5 6 8 9 9 10 11 11 11 12 13 14 16 18 20 22 24 27 30 35 37 34 32 33 36 37 36 38 40 41 40 38 38 37 36 35 34 32
17 18 18 19 20 20 20 21 22 21 21 21 22 22 22 23 23 24 24 26 27 28 27 27 27 29 30 30 30 31 30 28 27 26 24 22 21 19 17 15 13 11 10 8 7 6 5 5 7 8 9 10 11 12 12 13 14 15 15 16 17 18 20 22 26 30 34 35 32 30 33 36 35 35 37 39 40 39 38 37 37 36 35 34 33
17 18 19 19 19 19 19 20 20 20 21 22 22 21 22 23 24 25 26 27 28 29 29 29 30 31 32 31 31 30 29 28 27 25 23 22 20 18 16 15 13 11 9 8 6 5 5 6 7 9 10 11 12 12 13 14 14 15 16 16 17 18 19 22 25 30 33 32 31 31 34 35 34 33 35 37 39 38 37 37 37 37 35 33 33
19 19 19 19 19 19 19 20 20 20 21 23 22 22 23 25 26 27 30 31 31 31 31 32 32 32 32 31 31 30 28 27 26 25 23 21 19 17 16 14 12 10 8 7 5 4 5 6 8 9 10 11 12 12 13 14 14 15 16 16 17 20 22 23 26 29 31 31 31 32 34 34 33 32 34 36 37 38 37 37 37 36 34 33 32
22 22 21 21 21 21 21 21 20 21 22 23 23 25 27 29 29 31 33 33 33 33 32 31 32 32 31 30 30 29 27 26 25 23 21 20 18 16 14 12 10 8 7 5 4 4 5 7 8 9 11 12 12 12 13 13 14 15 16 16 18 21 23 24 26 28 30 30 31 32 33 33 31 31 33 35 36 37 37 38 37 35 34 32 32
Wind_Direction
217 217 217 217 218 218 219 219 217 217 216 216 217 218 218 217 215 214 212 211 210 208 209 207 205 203 202 201 200 199 199 198 199 200 198 198 198 198 197 197 195 193 194 198 203 210 217 223 232 240 246 251 255 258 260 261 262 262 262 266 265 264 271 278 279 285 290 293 294 296 302 306 305 305 306 306 306 308 307 308 309 307 307 307 307
219 219 218 217 218 219 219 218 216 215 215 216 217 217 217 216 214 212 211 210 209 208 207 206 204 203 202 202 202 201 200 199 199 199 198 196 196 196 197 196 194 193 193 197 203 209 216 223 231 238 243 248 252 256 260 261 262 266 270 271 272 272 273 278 282 288 292 296 300 303 306 310 307 305 307 306 305 307 306 306 308 307 305 305 305
222 221 219 218 219 219 218 217 216 215 214 215 217 216 215 215 213 212 210 209 208 207 207 205 203 202 202 202 202 201 201 200 199 199 198 198 196 196 197 196 194 194 195 198 203 208 215 222 229 234 239 246 252 254 256 260 262 270 276 276 279 282 282 282 284 284 290 296 302 307 308 310 307 305 307 307 305 307 307 307 308 306 304 304 303
223 221 220 220 219 218 217 217 216 214 214 215 215 214 214 213 212 211 209 208 206 205 205 204 203 201 201 202 202 201 201 200 200 199 199 199 198 196 195 194 195 196 198 201 204 209 215 221 227 234 239 244 250 251 251 257 262 267 275 279 282 287 289 288 285 284 287 293 299 303 304 306 305 304 307 308 307 309 307 306 308 307 305 303 301
223 222 221 220 217 216 216 215 214 214 214 215 214 213 212 211 210 209 207 206 205 203 201 201 201 200 200 201 202 202 203 202 200 200 199 199 199 198 195 194 195 197 199 203 206 211 217 223 228 231 235 240 244 248 248 252 259 262 270 277 281 288 293 293 290 288 285 286 293 300 302 303 303 303 306 308 310 312 310 307 307 307 306 304 300
222 222 221 220 217 216 214 213 214 215 214 214 213 212 210 208 207 206 205 204 201 200 200 199 200 200 201 202 202 203 203 202 201 200 198 197 196 196 195 194 195 197 200 204 208 214 219 223 228 229 232 237 239 243 247 249 255 260 264 275 284 289 289 289 288 287 284 283 289 295 298 300 302 302 305 308 309 310 310 309 306 304 304 304 299
221 220 220 220 218 216 214 214 215 215 214 213 212 210 208 206 205 203 203 202 199 198 198 198 199 200 201 202 203 204 203 202 202 200 198 197 195 194 193 193 194 197 202 206 209 216 221 222 227 229 229 234 237 241 245 246 251 259 266 276 284 284 281 282 283 281 280 281 282 286 291 296 298 298 301 306 305 303 304 306 305 302 303 302 297
219 219 219 219 219 218 216 216 215 213 212 211 209 207 205 204 203 202 201 200 199 199 198 197 198 199 201 202 202 203 202 201 201 199 198 197 196 195 193 192 195 198 201 207 211 215 220 223 227 229 228 234 240 241 244 248 253 260 270 277 279 277 273 274 274 272 271 273 275 280 286 291 295 296 299 303 301 298 297 296 295 298 303 303 298
218 217 216 218 220 220 218 216 213 211 209 207 206 205 204 202 201 200 200 199 198 199 198 198 197 197 199 201 201 201 201 201 201 200 198 197 195 194 194 194 197 199 200 204 209 213 218 223 225 228 233 237 240 240 243 249 255 262 271 276 272 267 265 264 264 264 265 267 271 278 282 285 289 293 295 296 292 292 296 292 286 291 300 301 299
216 215 214 218 220 219 217 213 210 208 206 204 204 202 201 200 198 198 197 197 197 197 197 197 197 197 197 198 199 200 201 203 203 202 201 199 195 193 193 195 196 198 200 201 204 210 216 221 224 227 231 232 232 237 242 247 255 260 265 268 265 263 263 263 263 263 265 268 270 274 276 277 282 285 287 291 293 294 298 298 294 296 299 298 297
215 214 216 219 219 215 212 209 207 205 204 202 202 200 198 197 196 195 194 194 195 196 195 195 196 197 197 198 198 199 201 204 203 202 200 199 196 194 193 194 195 197 199 199 201 207 209 213 220 220 222 227 232 240 247 251 255 259 261 262 264 264 264 266 269 269 270 273 274 273 273 278 285 288 290 295 299 300 300 298 295 296 296 295 296
215 217 219 219 215 211 209 206 204 203 201 201 199 197 195 194 193 193 193 194 194 194 195 195 196 197 197 198 199 199 202 204 201 199 198 196 196 195 193 193 194 195 197 198 199 200 199 201 207 213 219 226 236 246 253 255 258 260 262 263 262 264 266 268 272 274 275 279 280 279 279 285 290 292 293 297 298 297 297 295 291 290 290 288 285
217 219 219 216 211 208 205 203 201 201 199 198 196 193 192 192 192 193 193 193 193 193 194 195 195 196 197 197 199 200 202 202 198 196 196 195 195 195 194 194 194 194 196 198 197 195 194 193 195 210 224 229 237 250 257 261 266 266 265 265 266 267 268 268 271 274 278 281 282 281 281 284 288 289 291 294 294 294 293 291 288 287 283 280 279
217 218 217 213 208 205 203 201 200 199 197 195 192 191 192 193 193 193 192 191 192 192 193 194 195 196 198 198 199 200 202 200 195 194 194 194 194 194 193 193 194 196 197 196 196 195 193 195 200 215 230 235 241 254 262 267 271 270 268 267 268 268 269 272 274 275 276 276 276 278 280 281 283 286 289 291 290 288 287 285 285 284 279 278 280
215 216 213 209 205 202 201 200 198 196 193 192 191 192 193 193 193 192 192 192 192 193 193 194 195 196 197 198 198 200 201 197 193 192 191 190 191 192 192 192 193 195 196 195 197 196 194 201 212 221 227 232 244 252 259 267 268 268 268 269 272 275 275 275 275 274 276 276 275 279 282 283 284 285 288 290 288 286 287 287 289 291 290 289 289
216 214 209 206 203 201 199 197 195 193 191 190 191 192 193 193 192 192 191 192 193 194 194 195 195 195 196 196 196 199 200 195 191 192 189 184 185 188 190 192 192 193 195 195 197 200 204 212 218 219 222 232 246 246 247 261 267 271 277 278 278 278 275 276 279 279 280 281 281 282 284 285 286 287 288 291 292 293 296 295 293 293 293 291 289
216 212 208 206 203 201 199 194 192 191 190 190 192 193 193 193 192 191 189 190 191 193 194 195 195 194 194 194 196 197 197 192 189 191 188 183 183 187 189 191 191 194 197 198 203 208 214 218 213 216 233 244 246 242 243 258 269 274 278 277 277 278 279 283 284 282 283 285 284 284 285 285 288 290 292 294 294 295 297 294 291 293 291 285 285
220 213 210 209 204 201 198 194 193 191 191 193 194 193 192 192 191 190 189 190 191 192 193 193 193 194 195 195 196 197 195 189 187 189 187 184 185 187 189 189 190 195 198 200 210 217 215 217 219 230 243 244 242 244 248 259 268 272 276 279 281 283 284 288 289 289 292 291 287 284 283 285 290 294 295 294 292 292 290 286 286 289 287 282 281
233 223 220 215 207 202 198 196 195 194 194 196 194 192 191 190 189 190 190 190 191 191 191 191 191 194 196 196 197 197 193 187 185 187 185 183 188 189 188 187 188 193 197 199 209 215 209 218 230 234 239 242 249 258 261 265 270 275 280 283 283 282 284 290 294 295 295 293 290 289 290 292 295 296 296 294 292 290 284 281 281 281 281 282 282
255 241 233 222 210 206 202 200 200 198 197 196 192 189 189 187 187 187 188 189 189 189 190 190 191 193 195 196 196 196 193 186 183 186 184 183 188 190 188 189 189 189 192 194 199 206 214 226 229 228 238 254 263 267 269 273 279 284 284 282 280 283 289 294 295 296 296 296 296 296 296 298 298 298 297 294 293 291 286 281 278 277 279 284 287
265 248 232 218 209 206 203 203 203 202 199 193 189 188 188 187 186 185 185 186 186 187 189 190 191 192 194 195 195 195 192 186 182 184 184 183 188 192 192 191 189 187 187 190 196 205 213 215 212 218 242 260 263 267 274 280 286 286 283 281 282 286 293 297 297 298 299 299 300 300 300 301 301 299 297 295 294 292 288 283 280 278 279 281 285
261 242 225 214 206 202 202 201 201 200 198 192 187 186 187 187 186 183 182 184 184 185 187 187 188 190 192 193 194 193 190 187 184 183 184 184 187 192 194 193 190 186 185 190 199 203 199 199 212 232 246 250 255 268 278 284 288 285 282 283 287 293 299 300 299 301 303 303 303 302 301 301 301 300 299 297 296 292 289 287 286 284 282 281 282
257 234 220 210 203 200 199 199 198 196 194 190 186 184 183 183 183 182 182 182 182 185 186 185 185 186 188 190 193 192 190 189 186 183 183 185 186 188 192 192 189 187 189 193 197 192 190 206 231 241 238 243 258 272 281 286 288 286 286 289 295 300 302 300 302 306 306 304 301 299 299 300 301 301 300 298 297 295 293 292 289 287 286 284 283
253 232 218 205 200 198 195 196 196 194 191 188 184 181 180 180 181 183 183 182 183 186 187 184 183 183 184 186 190 191 189 188 187 184 182 184 185 186 187 185 186 192 195 195 193 191 201 226 238 229 229 248 268 276 278 280 283 287 292 297 301 302 303 304 309 309 304 300 298 296 297 300 300 300 299 298 298 297 295 293 290 288 288 288 289
246 233 221 206 200 196 193 194 195 194 191 188 184 181 180 179 180 183 184 184 185 187 188 188 188 184 183 184 187 190 188 185 185 183 181 182 184 184 184 183 185 190 194 194 195 201 212 220 214 210 236 261 268 269 270 272 280 291 297 300 302 305 309 312 312 307 300 297 297 296 298 301 300 298 298 298 298 299 298 297 295 293 293 293 294
250 238 223 214 206 197 192 191 193 194 193 191 190 187 184 182 182 182 184 186 188 189 191 193 192 188 185 185 186 187 186 182 179 179 179 180 181 181 182 184 184 185 188 189 189 188 187 191 199 220 251 262 262 267 271 274 282 288 293 300 308 315 319 316 310 304 298 297 298 298 299 302 301 299 300 301 300 300 301 301 299 298 298 299 296
251 240 228 221 211 200 195 193 191 192 192 192 192 191 189 187 184 183 185 187 188 190 192 193 194 194 190 186 184 184 183 178 175 175 176 176 176 178 181 182 180 178 178 177 177 180 184 194 214 236 250 254 255 263 271 275 283 290 299 312 319 321 321 315 306 300 297 296 298 299 301 303 303 303 304 304 302 302 304 302 298 297 301 302 296
248 242 235 225 213 205 202 197 193 192 193 192 192 192 192 191 190 191 192 191 188 189 190 192 195 196 189 182 178 178 180 180 177 175 175 174 173 176 177 177 176 176 177 178 182 191 200 210 225 235 242 246 250 262 272 280 295 306 313 321 325 324 322 315 305 301 299 300 301 302 303 305 304 304 305 304 302 303 305 303 298 297 301 302 295
248 242 235 225 216 211 207 203 199 197 197 198 198 198 197 196 197 199 200 198 195 193 191 192 194 193 187 181 176 172 178 185 183 179 177 175 174 174 175 175 176 180 185 190 192 192 198 211 221 224 230 242 254 271 288 300 309 314 319 324 326 324 322 316 308 305 306 306 305 304 304 304 303 303 304 302 301 303 304 302 299 298 300 299 291
248 240 231 222 217 213 207 206 205 202 201 201 201 204 205 205 205 205 204 203 201 198 196 195 193 189 185 183 180 179 183 186 183 179 176 173 172 173 173 174 176 176 179 185 189 189 192 201 207 210 220 245 268 285 299 306 311 315 322 326 324 323 321 315 310 309 309 307 305 302 302 301 301 302 303 300 301 304 304 301 298 298 298 296 290
248 241 232 223 218 213 208 206 203 200 200 199 196 195 198 202 206 208 205 200 197 197 199 197 192 188 185 181 178 181 183 178 172 169 168 168 170 171 170 170 170 168 171 177 182 185 189 192 195 202 223 251 273 288 295 300 305 312 319 322 321 320 316 311 311 311 309 305 303 301 299 298 298 299 301 301 301 302 302 300 299 298 296 293 289
250 245 237 227 220 214 208 204 199 196 195 194 192 189 185 183 191 200 200 195 193 193 192 188 185 186 184 179 175 173 169 164 162 163 165 168 169 168 168 168 163 163 172 183 183 179 183 190 195 204 234 259 273 284 290 293 301 309 313 313 314 314 311 309 310 309 305 302 301 298 297 297 297 299 300 301 301 300 300 301 301 301 298 293 287
253 249 242 229 218 211 205 201 197 194 191 190 188 188 185 182 180 180 181 186 189 189 186 181 179 176 175 174 172 166 161 160 161 164 166 166 165 163 162 159 156 163 179 188 182 178 181 190 200 215 243 267 278 286 291 295 303 309 309 305 305 307 308 310 310 307 302 301 298 295 295 298 299 301 302 302 300 298 298 301 303 301 298 292 288
257 252 246 231 216 208 204 200 197 194 193 190 189 189 189 186 179 170 167 173 179 180 177 175 173 168 164 165 164 160 158 159 161 163 164 162 160 158 153 148 149 166 184 184 178 180 185 191 203 224 251 269 280 288 294 302 309 311 310 308 306 306 309 310 309 306 304 302 297 295 297 300 302 303 303 302 300 298 298 301 303 301 298 294 293
261 256 250 237 221 210 205 201 197 194 193 191 190 190 188 185 180 176 173 171 169 168 167 167 167 165 161 160 159 158 158 160 159 160 160 159 157 155 151 147 151 164 173 175 176 181 186 192 203 224 252 269 280 288 296 307 313 313 312 311 309 309 309 310 309 307 304 301 298 298 300 303 305 306 304 300 298 299 302 304 304 302 297 294 294
263 258 251 238 224 213 207 201 197 195 194 192 191 189 186 183 180 178 176 172 166 161 158 158 159 158 157 157 158 158 158 157 156 157 158 158 159 160 158 158 161 164 166 171 177 179 183 192 203 224 254 269 282 292 300 309 314 314 314 312 309 307 308 309 309 307 303 300 299 301 303 305 308 308 305 300 298 301 305 305 304 302 297 295 295
263 258 250 237 224 214 207 201 197 196 193 189 187 185 183 182 180 176 173 170 165 160 156 154 153 153 155 158 158 157 155 154 154 156 156 156 163 171 173 170 168 167 167 171 176 178 180 190 205 231 257 272 287 298 305 311 315 317 317 315 309 307 308 308 306 303 301 300 301 303 306 309 310 309 305 301 302 306 308 307 304 301 299 299 299
265 259 252 239 224 211 204 197 193 190 187 183 183 183 181 180 178 174 171 168 163 160 158 157 156 156 156 158 157 154 151 150 150 152 154 158 167 175 177 174 172 171 170 172 174 176 177 184 207 237 258 278 293 301 308 314 317 319 319 316 313 312 312 308 305 304 303 302 303 306 309 311 311 309 305 302 305 309 310 308 306 303 302 302 300
271 263 255 242 222 207 201 192 185 183 182 180 181 180 178 177 176 173 170 166 162 161 160 160 159 157 155 154 153 151 149 148 149 150 154 161 168 171 171 171 170 169 169 170 170 172 173 182 210 240 261 281 293 301 309 313 317 319 318 316 315 315 314 310 308 306 305 303 304 307 310 311 311 309 307 306 309 312 310 308 307 305 303 302 300
273 266 255 237 216 203 196 188 182 180 179 178 178 177 177 176 174 170 166 163 161 160 159 157 156 156 156 156 156 155 152 151 152 154 156 160 165 167 169 169 168 167 168 169 168 169 173 186 213 243 265 280 289 299 306 311 315 317 318 318 316 314 312 310 307 305 305 305 306 308 311 312 311 309 309 312 314 314 311 309 308 305 302 301 300
266 261 247 227 208 196 188 184 183 181 178 176 176 175 174 173 169 165 163 161 158 156 155 154 155 157 159 160 159 158 155 151 152 156 158 160 163 165 166 167 166 165 165 166 166 170 179 196 223 248 266 278 289 297 303 309 314 317 318 320 318 313 310 309 307 306 306 306 307 309 312 312 311 311 314 316 317 316 313 310 308 306 304 304 303
259 250 233 211 197 189 183 182 182 178 175 175 174 172 171 168 164 160 159 157 155 153 152 152 155 158 158 155 155 156 155 152 153 156 159 161 163 164 163 164 164 162 163 164 167 174 189 210 234 256 270 281 291 298 303 310 316 318 319 320 317 312 309 308 308 309 308 306 307 311 313 312 313 315 317 318 318 317 314 310 309 308 306 306 306
255 239 216 197 189 185 180 177 175 172 171 172 171 167 165 161 158 157 157 156 157 156 153 152 154 154 151 149 152 157 156 154 155 159 160 162 163 163 162 163 161 160 163 167 171 183 203 224 244 261 274 284 293 299 304 312 317 319 320 319 315 311 310 309 309 311 310 308 310 313 313 312 315 318 319 319 319 317 314 311 310 310 309 308 308
243 219 196 185 179 175 172 170 167 166 165 163 160 159 159 157 157 157 157 157 157 157 155 154 154 152 148 148 153 156 155 155 158 161 162 162 163 162 162 162 161 162 167 172 180 195 215 238 255 265 277 287 293 298 304 310 315 316 318 318 315 311 310 310 311 312 311 310 312 313 312 314 318 320 320 321 320 318 315 314 313 312 311 311 310
209 184 170 164 160 158 158 159 158 156 155 153 153 154 156 156 156 156 155 155 154 153 153 155 154 149 146 148 153 155 156 158 161 163 163 163 163 162 161 162 163 166 170 177 188 203 222 246 261 272 285 291 295 299 302 304 309 313 315 316 314 311 311 313 314 314 313 312 312 311 312 317 321 321 320 321 321 318 316 315 315 313 313 313 313
173 161 154 151 149 148 149 151 151 151 151 150 150 151 152 153 154 154 153 152 151 150 151 152 150 145 144 148 153 156 158 160 162 163 163 163 162 161 162 163 164 168 173 182 193 207 226 248 264 279 292 296 300 304 302 301 304 308 312 315 315 314 316 318 318 317 317 316 313 312 315 320 321 320 320 321 321 318 316 316 316 316 315 315 315
148 145 143 142 141 141 142 144 145 146 147 147 147 146 146 147 147 147 147 147 147 147 148 148 147 146 148 152 155 157 159 161 161 161 161 162 162 161 162 163 166 171 177 184 194 209 228 250 267 282 292 300 306 307 304 304 307 308 310 315 318 319 321 323 323 323 323 320 315 315 320 322 320 319 321 322 321 320 318 317 318 318 317 317 318
129 129 130 132 133 133 136 138 139 140 140 140 140 140 139 140 140 141 142 143 143 144 145 146 147 149 152 154 156 158 159 160 160 160 160 161 161 162 163 164 168 173 180 186 197 213 233 256 273 283 291 299 305 307 308 309 310 309 311 316 320 323 325 327 328 329 326 321 316 319 324 323 319 319 321 322 321 320 319 318 319 319 319 319 321
113 115 118 122 124 127 131 134 136 136 136 134 133 133 134 135 137 139 142 144 145 146 147 148 150 152 153 154 155 156 158 158 158 159 161 161 161 161 163 166 170 176 180 187 201 221 244 265 278 285 292 297 302 306 310 312 310 310 313 316 323 330 333 333 333 332 327 322 321 325 326 323 320 320 322 323 322 322 320 319 320 320 320 321 323
98 103 107 110 112 117 121 124 126 128 131 131 130 130 132 134 137 140 142 143 143 144 146 149 152 154 155 154 154 155 157 158 159 160 161 160 161 163 165 168 173 178 181 188 205 230 254 272 281 286 291 296 301 307 311 312 310 310 313 319 329 336 337 336 334 332 327 324 326 328 327 323 321 321 323 324 324 324 323 322 322 322 322 323 325
94 97 100 102 106 111 114 117 120 124 129 130 131 132 134 136 138 141 142 142 143 145 148 150 153 154 155 155 155 156 158 159 159 160 160 160 161 163 166 169 174 178 184 196 217 243 266 278 283 287 291 297 305 311 313 312 310 310 316 326 333 336 337 337 333 329 326 327 329 330 328 324 321 321 325 327 326 325 325 324 323 324 324 325 327